TimeCST,TemperatureF,Dew PointF,Humidity,Sea Level PressureIn,VisibilityMPH,Wind Direction,Wind SpeedMPH,Gust SpeedMPH,PrecipitationIn,Events,Conditions,WindDirDegrees,DateUTC
12:53 AM,34.0,30.9,89,30.42,10.0,NNW,3.5,-,N/A,,Clear,340,2012-11-13 06:53:00
1:53 AM,33.1,28.9,85,30.43,10.0,NNW,3.5,-,N/A,,Clear,340,2012-11-13 07:53:00
2:53 AM,32.0,28.0,85,30.43,10.0,NNW,3.5,-,N/A,,Clear,340,2012-11-13 08:53:00
3:53 AM,32.0,27.0,82,30.43,10.0,NNW,4.6,-,N/A,,Clear,340,2012-11-13 09:53:00
4:53 AM,30.9,26.1,82,30.45,10.0,NNW,3.5,-,N/A,,Clear,340,2012-11-13 10:53:00
5:53 AM,30.9,26.1,82,30.46,10.0,NNW,3.5,-,N/A,,Clear,330,2012-11-13 11:53:00
6:53 AM,32.0,27.0,82,30.47,10.0,NNW,4.6,-,N/A,,Clear,330,2012-11-13 12:53:00
7:53 AM,37.0,30.0,76,30.48,10.0,NNW,4.6,-,N/A,,Clear,340,2012-11-13 13:53:00
8:53 AM,44.1,28.0,53,30.49,10.0,NE,15.0,20.7,N/A,,Clear,40,2012-11-13 14:53:00
9:53 AM,46.0,26.1,46,30.48,10.0,NNE,16.1,25.3,N/A,,Clear,20,2012-11-13 15:53:00
10:53 AM,48.9,27.0,43,30.46,10.0,North,12.7,19.6,N/A,,Clear,10,2012-11-13 16:53:00
11:53 AM,51.1,27.0,39,30.42,10.0,North,16.1,20.7,N/A,,Clear,10,2012-11-13 17:53:00
12:53 PM,52.0,26.1,37,30.40,10.0,NNE,13.8,-,N/A,,Clear,20,2012-11-13 18:53:00
1:53 PM,54.0,26.1,34,30.38,10.0,North,11.5,-,N/A,,Clear,10,2012-11-13 19:53:00
2:53 PM,53.1,26.1,35,30.37,10.0,North,11.5,-,N/A,,Clear,350,2012-11-13 20:53:00
3:53 PM,51.1,26.1,38,30.36,10.0,NNE,11.5,-,N/A,,Clear,20,2012-11-13 21:53:00
4:53 PM,46.9,26.1,44,30.36,10.0,North,8.1,-,N/A,,Clear,10,2012-11-13 22:53:00
5:53 PM,45.0,26.1,48,30.38,10.0,North,9.2,-,N/A,,Clear,10,2012-11-13 23:53:00
6:53 PM,42.1,27.0,55,30.39,10.0,North,5.8,-,N/A,,Clear,360,2012-11-14 00:53:00
7:53 PM,41.0,27.0,57,30.39,10.0,North,8.1,-,N/A,,Clear,10,2012-11-14 01:53:00
8:53 PM,39.9,27.0,60,30.38,10.0,NNE,10.4,-,N/A,,Clear,20,2012-11-14 02:53:00
9:53 PM,39.0,26.1,60,30.38,10.0,NNE,9.2,-,N/A,,Clear,20,2012-11-14 03:53:00
10:53 PM,39.0,26.1,60,30.36,10.0,NE,6.9,-,N/A,,Partly Cloudy,50,2012-11-14 04:53:00
11:53 PM,37.0,26.1,65,30.35,10.0,NNE,6.9,-,N/A,,Partly Cloudy,20,2012-11-14 05:53:00